Powrót do katalogu

COSMOS 1375 DEB

AktywnyLEO
NORAD 16382·DEBRIS·🇷🇺 Russia

Wystrzelony Jun 6, 1982 z Plesetsk Cosmodrome

Loading…

Następne Przeloty (najbliższe 24 godziny)

TLE

ŚwieżeSource: Space-Track

Epoka: Sep 14, 2026, 10:16 UTC

1 16382U 82055W   26257.42805593  .00003748  00000-0  10477-2 0  9991
2 16382  65.7374  46.4889 0029206 216.6215 175.9782 14.47084327103233

Śledź COSMOS 1375 DEB w czasie rzeczywistym z AllMySat

Download on the App Store